DW9435 Weather Reports


Display with metric or nautical units.
time (UTC)temp
F
wind
direction
speed
MPH
gust
MPH
rain 1hr
in
rain 24hr
in
rain mn
in
humidity
%
barometer
mb
20260503013035 67 316 3.0 11.0 0.00 0.00 0.00 21 1010.2
20260503011530 68 34 3.0 5.0 0.00 0.00 0.00 16 1010.1
20260503010034 68 86 2.0 5.0 0.00 0.00 0.00 13 1010.0
20260503004528 69 120 1.0 4.0 0.00 0.00 0.00 14 1010.0
20260503003027 70 124 2.0 6.0 0.00 0.00 0.00 13 1010.0
20260503001526 70 27 2.0 9.0 0.00 0.00 0.00 13 1010.0
20260503000024 71 74 7.0 14.0 0.00 0.00 0.00 13 1010.0
20260502234528 71 41 2.0 7.0 0.00 0.00 0.00 12 1010.2
20260502233024 70 51 2.0 7.0 0.00 0.00 0.00 13 1010.3
20260502231520 71 217 3.0 7.0 0.00 0.00 0.00 13 1010.5
20260502230023 70 72 2.0 6.0 0.00 0.00 0.00 12 1010.8
20260502224515 70 225 8.0 13.0 0.00 0.00 0.00 13 1011.1
20260502223014 70 215 9.0 12.0 0.00 0.00 0.00 12 1011.3
20260502221509 69 53 3.0 13.0 0.00 0.00 0.00 11 1011.8
20260502220008 70 283 7.0 21.0 0.00 0.00 0.00 13 1012.1
20260502214505 70 280 4.0 10.0 0.00 0.00 0.00 13 1012.3
20260502213003 70 294 6.0 11.0 0.00 0.00 0.00 14 1012.6
20260502211559 68 304 4.0 11.0 0.00 0.00 0.00 15 1012.9
20260502210112 68 239 6.0 15.0 0.00 0.00 0.00 15 1013.2
20260502204558 68 217 11.0 18.0 0.00 0.00 0.00 15 1013.4
20260502203053 68 153 2.0 9.0 0.00 0.00 0.00 15 1013.7
20260502201554 68 252 5.0 14.0 0.00 0.00 0.00 16 1013.9
20260502200051 68 229 5.0 11.0 0.00 0.00 0.00 16 1014.1
20260502194545 66 232 4.0 13.0 0.00 0.00 0.00 16 1014.3
20260502193044 65 318 2.0 15.0 0.00 0.00 0.00 16 1014.6
20260502191552 65 311 4.0 15.0 0.00 0.00 0.00 18 1014.7
20260502190045 64 218 8.0 17.0 0.00 0.00 0.00 18 1014.9
20260502184547 64 293 10.0 16.0 0.00 0.00 0.00 19 1015.3
20260502183050 63 276 5.0 18.0 0.00 0.00 0.00 23 1015.4
20260502181540 63 195 12.0 19.0 0.00 0.00 0.00 24 1015.6
20260502163019 60 236 6.0 16.0 0.00 0.00 0.00 24 1016.2
20260502161518 60 233 5.0 12.0 0.00 0.00 0.00 27 1016.1
20260502151513 57 109 9.0 16.0 0.00 0.00 0.00 27 1016.4
20260502130106 54 82 1.0 11.0 0.00 0.00 0.00 25 1016.3
20260502123057 53 210 5.0 12.0 0.00 0.00 0.00 28 1016.2
20260502121556 50 160 1.0 2.0 0.00 0.00 0.00 35 1016.2
20260502114551 54 8 2.0 9.0 0.00 0.00 0.00 28 1016.1
20260502113047 56 311 3.0 12.0 0.00 0.00 0.00 27 1016.0
20260502111549 55 169 7.0 13.0 0.00 0.00 0.00 28 1016.2
20260502110044 55 198 6.0 13.0 0.00 0.00 0.00 27 1016.2
20260502104543 55 277 0.0 10.0 0.00 0.00 0.00 26 1016.3
20260502103045 56 129 5.0 12.0 0.00 0.00 0.00 25 1016.2
20260502101550 56 134 7.0 19.0 0.00 0.00 0.00 28 1016.2
20260502091532 53 345 0.0 3.0 0.00 0.00 0.00 32 1016.2
20260502071518 53 142 1.0 3.0 0.00 0.00 0.00 34 1016.7
20260502070015 55 98 2.0 3.0 0.00 0.00 0.00 31 1016.6
20260502064513 55 115 2.0 3.0 0.00 0.00 0.00 30 1016.7
20260502063023 55 105 1.0 2.0 0.00 0.00 0.00 31 1016.7
20260502061509 55 92 2.0 3.0 0.00 0.00 0.00 31 1016.8
20260502060006 54 122 2.0 4.0 0.00 0.00 0.00 28 1016.7
20260502054506 55 88 2.0 4.0 0.00 0.00 0.00 27 1016.7
20260502053005 55 89 1.0 4.0 0.00 0.00 0.00 27 1016.7
20260502051504 55 79 1.0 3.0 0.00 0.00 0.00 28 1016.6
20260502050003 55 72 2.0 4.0 0.00 0.00 0.00 28 1016.6
20260502044503 55 76 4.0 5.0 0.00 0.00 0.00 28 1016.6
20260502043002 55 86 3.0 5.0 0.00 0.00 0.00 28 1016.5
20260502041501 54 77 2.0 4.0 0.00 0.00 0.00 31 1016.4
20260502040002 54 67 3.0 5.0 0.00 0.00 0.00 31 1016.4
20260502034600 54 60 3.0 5.0 0.00 0.00 0.00 31 1016.2
20260502033108 55 88 1.0 4.0 0.00 0.00 0.00 30 1016.0
20260502031559 55 48 1.0 5.0 0.00 0.00 0.00 30 1015.8
20260502030059 56 64 2.0 6.0 0.00 0.00 0.00 30 1015.5
20260502024557 56 36 1.0 5.0 0.00 0.00 0.00 30 1015.4
20260502023059 57 27 2.0 7.0 0.00 0.00 0.00 30 1015.3
20260502021557 58 236 4.0 12.0 0.00 0.00 0.00 29 1015.1
20260502020106 59 333 6.0 13.0 0.00 0.00 0.00 28 1015.0
20260502014555 60 348 7.0 13.0 0.00 0.00 0.00 27 1014.9